Regional Weather Roundup
Issued by NWS

Home | Current Version | Previous Version | Text Only | Print | Product List | Glossary Off
Versions: 1 2 3 4 5 6 7 8 9 10 11 12 13 14 15 16 17 18 19 20 21 22 23 24 25 26 27 28 29 30 31 32 33 34 35 36 37 38 39 40 41 42 43 44 45 46 47 48 49 50

000
ASUS43 KIND 100959
RWRIN

WEATHER ROUNDUP FOR INDIANA
NATIONAL WEATHER SERVICE INDIANAPOLIS IN
600 AM EDT THU JUL 10 2014

NOTE: "FAIR" INDICATES FEW OR NO CLOUDS BELOW 12,000 FEET WITH NO
SIGNIFICANT WEATHER AND/OR OBSTRUCTIONS TO VISIBILITY.

* - STATION DOES NOT REPORT WEATHER SUCH AS PRECIPITATION OR FOG.

+ - STATION NOT QUALITY CONTROLLED BY THE NATIONAL WEATHER SERVICE.
    USE DATA WITH CAUTION...ESPECIALLY DEWPOINT AND RELATIVE
    HUMIDITY OBSERVATIONS.

INZ001>003-010>013-019-020-101100-
NORTHWEST INDIANA

CITY           SKY/WX    TMP DP  RH WIND       PRES   REMARKS
GARY /AIRPORT/ PTCLDY    57  57 100 CALM      30.11S FOG
KNOX *+          N/A     51  49  94 CALM      30.10S VSB<1/4
MONTICELLO +   CLEAR     56  55  94 CALM      30.10R
RENSSELAER +   CLEAR     52  52 100 CALM      30.11R
VALPARAISO     CLEAR     57  55  93 CALM      30.11S

$$

LMZ046-743>745-101100-
SOUTHERN LAKE MICHIGAN

STATION/POSITION TIME  TEMP WIND        PRES
                       AIR  DIR/SP/G
                 (UTC) (F)  (DEG/KT/KT) (MB)
MICHIGAN CITY    0900   62  110/  3/  3   N/A

$$

INZ004-005-014>016-021>024-101100-
NORTH CENTRAL INDIANA

CITY           SKY/WX    TMP DP  RH WIND       PRES   REMARKS
GOSHEN         CLEAR     55  52  89 N3        30.11R FOG
SOUTH BEND     CLEAR     56  52  86 CALM      30.12R
WARSAW +         N/A     52  52 100 CALM      30.11R FOG

$$

INZ006>009-017-018-025>027-101100-
NORTHEAST INDIANA

CITY           SKY/WX    TMP DP  RH WIND       PRES   REMARKS
ANGOLA *+      CLEAR     55  54  94 CALM      30.11R
FORT WAYNE     PTCLDY    58  55  90 NW3       30.10R

$$

INZ028-029-035-036-043>045-051>053-101100-
WEST CENTRAL INDIANA

CITY           SKY/WX    TMP DP  RH WIND       PRES   REMARKS
GREENCASTLE +  PTCLDY    59  55  88 CALM      30.08S
LAFAYETTE      CLEAR     59  56  89 N6        30.10R
TERRE HAUTE    CLEAR     58  57  97 N5        30.07S

$$

INZ030>032-037>040-046>048-054>057-064-065-101100-
CENTRAL INDIANA

CITY           SKY/WX    TMP DP  RH WIND       PRES   REMARKS
INDIANAPOLIS   PTCLDY    62  56  80 NE7       30.07R
-EAGLE CREEK   CLEAR     62  55  77 CALM      30.07S
KOKOMO *+      PTCLDY    61  55  82 N5        30.10R
MT COMFORT *+  CLEAR     55 N/A N/A CALM      30.09R
SHELBYVILLE    CLEAR     61  56  83 N6        30.07R

$$

INZ033-034-041-042-049-050-058-059-101100-
EAST CENTRAL INDIANA

CITY           SKY/WX    TMP DP  RH WIND       PRES   REMARKS
MUNCIE         PTCLDY    60  56  86 N3        30.09R

$$

INZ060-061-067>069-081>083-085>088-101100-
SOUTHWEST INDIANA

CITY           SKY/WX    TMP DP  RH WIND       PRES   REMARKS
EVANSVILLE     PTCLDY    68  60  75 N3        30.06R
HUNTINGBURG *+ MOCLDY    64  61  88 N3        30.06R

$$

INZ062-063-066-070>080-084-089>092-101100-
SOUTH CENTRAL AND SOUTHEAST INDIANA

CITY           SKY/WX    TMP DP  RH WIND       PRES   REMARKS
BLOOMINGTON    PTCLDY    58  56  93 CALM      30.07S

$$




USA.gov is the U.S. government's official web portal to all federal, state and local government web resources and services.